Wetterdaten: aktuell Montag, 04.05.2026 01:18
Datum Zeit Temp. A. Feuchte A. Luftdruck Regen Wind Richtung Richtung Sonnenschein Regendauer Taupunkt Windchill
04.05.2026 01:18 16,5 °C 51 % 1010,1 hPa 0,0 mm 0,0 km/h (0 Bft) N 350 ° 0 min 0 min 6,3 °C 16,5 °C
04.05.2026 01:13 16,4 °C 51 % 1010,1 hPa 0,0 mm 0,0 km/h (0 Bft) W-NW 300 ° 0 min 0 min 6,2 °C 16,4 °C
04.05.2026 01:08 16,4 °C 51 % 1010,1 hPa 0,0 mm 0,0 km/h (0 Bft) N-NW 335 ° 0 min 0 min 6,2 °C 16,4 °C
04.05.2026 01:03 16,4 °C 51 % 1010,1 hPa 0,0 mm 2,0 km/h (1 Bft) W-NW 290 ° 0 min 0 min 6,2 °C 16,4 °C
04.05.2026 00:58 16,4 °C 51 % 1010,1 hPa 0,0 mm 2,0 km/h (1 Bft) N 355 ° 0 min 0 min 6,2 °C 16,4 °C
04.05.2026 00:53 16,6 °C 51 % 1010,1 hPa 0,0 mm 2,3 km/h (1 Bft) NW 325 ° 0 min 0 min 6,4 °C 16,6 °C
04.05.2026 00:48 16,9 °C 50 % 1010,0 hPa 0,0 mm 2,2 km/h (1 Bft) N-NW 335 ° 0 min 0 min 6,4 °C 16,9 °C
04.05.2026 00:43 16,9 °C 50 % 1010,0 hPa 0,0 mm 1,8 km/h (1 Bft) N 355 ° 0 min 0 min 6,4 °C 16,9 °C
04.05.2026 00:38 17,1 °C 48 % 1010,0 hPa 0,0 mm 0,9 km/h (0 Bft) N 355 ° 0 min 0 min 6,0 °C 17,1 °C
04.05.2026 00:33 17,4 °C 46 % 1009,9 hPa 0,0 mm 1,4 km/h (1 Bft) S 180 ° 0 min 0 min 5,7 °C 17,4 °C
04.05.2026 00:28 17,4 °C 47 % 1009,9 hPa 0,0 mm 8,3 km/h (2 Bft) N-NO 15 ° 0 min 0 min 6,0 °C 17,4 °C
04.05.2026 00:23 17,1 °C 47 % 1010,0 hPa 0,0 mm 0,0 km/h (0 Bft) W-NW 295 ° 0 min 0 min 5,7 °C 17,1 °C
04.05.2026 00:17 17,1 °C 47 % 1010,0 hPa 0,0 mm 0,0 km/h (0 Bft) W 265 ° 0 min 0 min 5,7 °C 17,1 °C
04.05.2026 00:13 17,3 °C 46 % 1009,9 hPa 0,0 mm 0,0 km/h (0 Bft) SW 220 ° 0 min 0 min 5,6 °C 17,3 °C
04.05.2026 00:08 17,4 °C 46 % 1009,9 hPa 0,0 mm 0,0 km/h (0 Bft) W 270 ° 0 min 0 min 5,7 °C 17,4 °C
04.05.2026 00:02 17,4 °C 45 % 1009,9 hPa 0,0 mm 1,4 km/h (1 Bft) W-SW 240 ° 0 min 0 min 5,3 °C 17,4 °C
03.05.2026 23:58 17,2 °C 46 % 1010,0 hPa 0,0 mm 0,5 km/h (0 Bft) S-SW 210 ° 0 min 0 min 5,5 °C 17,2 °C
03.05.2026 23:52 17,6 °C 45 % 1009,9 hPa 0,0 mm 3,7 km/h (1 Bft) NW 325 ° 0 min 0 min 5,5 °C 17,6 °C
03.05.2026 23:48 17,7 °C 44 % 1009,9 hPa 0,0 mm 3,1 km/h (1 Bft) SW 225 ° 0 min 0 min 5,3 °C 17,7 °C
03.05.2026 23:42 17,7 °C 44 % 1009,9 hPa 0,0 mm 0,0 km/h (0 Bft) N-NO 15 ° 0 min 0 min 5,3 °C 17,7 °C
03.05.2026 23:38 17,9 °C 43 % 1009,8 hPa 0,0 mm 0,0 km/h (0 Bft) W 275 ° 0 min 0 min 5,1 °C 17,9 °C
03.05.2026 23:32 18,0 °C 43 % 1009,8 hPa 0,0 mm 1,4 km/h (1 Bft) W-NW 285 ° 0 min 0 min 5,2 °C 18,0 °C
03.05.2026 23:28 17,9 °C 43 % 1009,8 hPa 0,0 mm 0,0 km/h (0 Bft) N 355 ° 0 min 0 min 5,1 °C 17,9 °C
03.05.2026 23:23 18,2 °C 42 % 1009,8 hPa 0,0 mm 2,5 km/h (1 Bft) S 185 ° 0 min 0 min 5,1 °C 18,2 °C
03.05.2026 23:17 18,2 °C 42 % 1009,8 hPa 0,0 mm 2,0 km/h (1 Bft) W 265 ° 0 min 0 min 5,1 °C 18,2 °C
03.05.2026 23:13 18,2 °C 42 % 1009,8 hPa 0,0 mm 1,4 km/h (1 Bft) S-SO 160 ° 0 min 0 min 5,1 °C 18,2 °C
03.05.2026 23:07 18,0 °C 42 % 1009,8 hPa 0,0 mm 1,8 km/h (1 Bft) SW 225 ° 0 min 0 min 4,9 °C 18,0 °C
03.05.2026 23:02 18,0 °C 42 % 1009,8 hPa 0,0 mm 1,6 km/h (1 Bft) NW 310 ° 0 min 0 min 4,9 °C 18,0 °C
03.05.2026 22:58 18,0 °C 41 % 1009,8 hPa 0,0 mm 0,0 km/h (0 Bft) NO 35 ° 0 min 0 min 4,6 °C 18,0 °C
03.05.2026 22:52 18,0 °C 40 % 1009,8 hPa 0,0 mm 0,0 km/h (0 Bft) S 190 ° 0 min 0 min 4,2 °C 18,0 °C
03.05.2026 22:48 18,2 °C 40 % 1009,8 hPa 0,0 mm 0,0 km/h (0 Bft) W-NW 285 ° 0 min 0 min 4,4 °C 18,2 °C
03.05.2026 22:42 18,0 °C 41 % 1009,8 hPa 0,0 mm 0,0 km/h (0 Bft) W-NW 285 ° 0 min 0 min 4,6 °C 18,0 °C
03.05.2026 22:37 18,0 °C 41 % 1009,8 hPa 0,0 mm 0,0 km/h (0 Bft) W 260 ° 0 min 0 min 4,6 °C 18,0 °C
03.05.2026 22:33 18,2 °C 40 % 1009,8 hPa 0,0 mm 0,0 km/h (0 Bft) SW 220 ° 0 min 0 min 4,4 °C 18,2 °C
03.05.2026 22:27 18,0 °C 40 % 1009,8 hPa 0,0 mm 0,0 km/h (0 Bft) W 275 ° 0 min 0 min 4,2 °C 18,0 °C
03.05.2026 22:22 18,1 °C 40 % 1009,8 hPa 0,0 mm 0,0 km/h (0 Bft) W 260 ° 0 min 0 min 4,3 °C 18,1 °C
03.05.2026 22:18 18,1 °C 40 % 1009,8 hPa 0,0 mm 0,0 km/h (0 Bft) NW 305 ° 0 min 0 min 4,3 °C 18,1 °C
03.05.2026 22:12 18,0 °C 42 % 1008,8 hPa 0,0 mm 0,0 km/h (0 Bft) W-SW 255 ° 0 min 0 min 4,9 °C 18,0 °C
03.05.2026 22:07 18,4 °C 39 % 1008,7 hPa 0,0 mm 0,0 km/h (0 Bft) W-SW 240 ° 0 min 0 min 4,2 °C 18,4 °C
03.05.2026 22:02 18,4 °C 39 % 1008,7 hPa 0,0 mm 4,9 km/h (1 Bft) W 280 ° 0 min 0 min 4,2 °C 18,4 °C
03.05.2026 21:57 18,5 °C 39 % 1009,7 hPa 0,0 mm 4,4 km/h (1 Bft) O-SO 105 ° 0 min 0 min 4,3 °C 18,5 °C
03.05.2026 21:52 18,4 °C 37 % 1009,7 hPa 0,0 mm 0,0 km/h (0 Bft) S-SW 195 ° 0 min 0 min 3,5 °C 18,4 °C
03.05.2026 21:47 18,5 °C 37 % 1009,7 hPa 0,0 mm 0,0 km/h (0 Bft) SW 220 ° 0 min 0 min 3,5 °C 18,5 °C
03.05.2026 21:42 18,5 °C 37 % 1009,7 hPa 0,0 mm 0,0 km/h (0 Bft) W-SW 240 ° 0 min 0 min 3,5 °C 18,5 °C
03.05.2026 21:37 18,7 °C 37 % 1009,7 hPa 0,0 mm 1,1 km/h (1 Bft) SW 225 ° 0 min 0 min 3,7 °C 18,7 °C
03.05.2026 21:32 18,7 °C 37 % 1009,7 hPa 0,0 mm 0,0 km/h (0 Bft) W-NW 295 ° 0 min 0 min 3,7 °C 18,7 °C
03.05.2026 21:27 18,6 °C 37 % 1008,7 hPa 0,0 mm 11,6 km/h (2 Bft) NW 320 ° 0 min 0 min 3,6 °C 18,6 °C
03.05.2026 21:22 18,2 °C 39 % 1008,7 hPa 0,0 mm 0,0 km/h (0 Bft) NW 310 ° 0 min 0 min 4,0 °C 18,2 °C
03.05.2026 21:17 18,4 °C 39 % 1008,7 hPa 0,0 mm 0,0 km/h (0 Bft) NO 45 ° 0 min 0 min 4,2 °C 18,4 °C
_ Min-Zeit 05:57 16:57 17:47 - 02:02 - - - - 18:42 05:57
Minimum _ 9,3 °C 21 % 1007,0 hPa - 0,0 km/h (0 Bft) - - - - 2,3 °C 9,3 °C
_ Max-Zeit 16:07 02:17 02:42 02:02 13:22 - - 09:12 02:02 12:22 16:07
Maximum _ 28,6 °C 64 % 1017,7 hPa 0,0 mm 23,9 km/h
S-SO (4 Bft)
- - 7 min 0 min 10,0 °C 28,6 °C
Durchschnitt _ 18,8 °C 44 % 1012,2 hPa #0,0 mm 5,6 km/h (2 Bft) W - #0 min. #0 min. 5,3 °C 18,8 °C